Regional Weather Roundup
Issued by NWS Binghamton, NY

Home | Current Version | Previous Version | Text Only | Print | Product List | Glossary On
Versions: 1 2 3 4 5 6 7 8 9 10 11 12 13 14 15 16 17 18 19 20 21 22 23 24 25 26 27 28 29 30 31 32 33 34 35 36 37 38 39 40 41 42 43 44 45 46 47 48 49 50
000
ASUS41 KBGM 290710
RWRBGM

REGIONAL WEATHER ROUNDUP
NATIONAL WEATHER SERVICE BINGHAMTON NY
300 AM EDT WED JUN 29 2016

Note: "fair" indicates few or no clouds below 12,000 feet with no
significant weather and/or obstructions to visibility.

* = Station(s) that does not report precipitation, such as rain,
snow, etc, also no thunder or fog.

NYZ009-015>018-022>025-036-037-044>046-055>057-062-290800
...Central New York...

CITY           SKY/WX    TMP DP  RH WIND       PRES   REMARKS
Binghamton     MOCLDY    58  58 100 NW3       29.93S
Cortland       MOCLDY    59  59 100 CALM      29.93F
Dansville      MOCLDY    60  54  80 SE6       29.96S
Elmira         MOCLDY    63  56  78 SW8       29.92F
Ithaca         NOT AVBL
Hamilton       CLOUDY    61  59  94 CALM      29.92S VSB 1/4
Hornell        MOCLDY    55  54  94 CALM      29.99F
Monticello     CLOUDY    61  61 100 CALM      29.93R
Norwich        CLOUDY   N/A N/A N/A CALM      29.93S FOG
Oneonta        PTCLDY    57  57 100 CALM      29.92S
Penn Yan       PTCLDY    64  55  72 S6        29.93F
Rome           CLOUDY    61  61 100 NW5       29.90F
Sidney         CLOUDY    63  63 100 CALM      29.92S FOG
Syracuse       PTCLDY    62  59  90 SW6       29.89F
$$

PAZ038>040-043-044-047-048-072-290800
...Northeast Pennsylvania...

CITY           SKY/WX    TMP DP  RH WIND       PRES   REMARKS
Hazleton       CLEAR     57  55  94 CALM      29.96S
Scranton       PTCLDY    61  59  93 E5        29.90F
$$
&&
KEY
WCI = Wind Chill Index
VSB = Visibility
HX  = Heat Index
$$



USA.gov is the U.S. government's official web portal to all federal, state and local government web resources and services.